Location: George Washington National Forest Helicopter Landing Site
(38.6463°N, 79.0851°W)
Time: 18:03:08
(UTC-04:00)

Tiros 1 despin weight - Pass Details

Date: 24 August 2019
Orbit: 595 x 642 km, 48.2° (Epoch: 15 September)

Event Time Altitude Azimuth Distance (km) Brightness Sun altitude
Rises 01:39:31 0° 272° (W) 2,834 - -39.9°
Reaches altitude 10° 01:42:02 10° 284° (WNW) 1,939 - -39.9°
Maximum altitude 01:45:57 29° 346° (NNW) 1,105 - -39.8°
Drops below altitude 10° 01:49:55 10° 47° (NE) 1,966 - -39.6°
Exits shadow 01:51:15 - 54° (NE) 2,433 ? -39.6°
Sets 01:52:29 0° 59° (ENE) 2,881 ? -39.6°
